User: anonymous   Login
Location: Pic du Midi - T1M
(42.9366°N, 0.1426°E)
Time: 14:21:34
(UTC+01:00)
Language:

ZACube-1 - Orbit

View from above orbital plane
View from above orbital plane
View from above satellite
View from above satellite

Ground track
Ground track

The orbit data is extracted from the following two-line orbital elements,

1 39417U 13066B   21267.19052762  .00000395  00000-0  55368-4 0  9998
2 39417  97.6030 246.4534 0057964 196.0602 163.8776 14.81599087423698
Epoch (UTC): 24 September 2021 04:34:21
Eccentricity: 0.0057964
inclination: 97.6030°
perigee height: 583 km
apogee height: 665 km
right ascension of ascending node: 246.4534°
argument of perigee: 196.0602°
revolutions per day: 14.81599087
mean anomaly at epoch: 163.8776°
orbit number at epoch: 42369

The dashed part of the orbit path shows where the satellite is in the earth's shadow,  

DLR